TimeEDT,TemperatureF,Dew PointF,Humidity,Sea Level PressureIn,VisibilityMPH,Wind Direction,Wind SpeedMPH,Gust SpeedMPH,PrecipitationIn,Events,Conditions,WindDirDegrees,DateUTC
12:53 AM,50.0,46.0,86,30.35,10.0,SSW,3.5,-,N/A,,Clear,200,2013-10-14 04:53:00
1:53 AM,52.0,48.0,86,30.35,10.0,SSW,5.8,-,N/A,,Overcast,200,2013-10-14 05:53:00
2:53 AM,52.0,48.0,86,30.35,10.0,South,4.6,-,N/A,,Overcast,180,2013-10-14 06:53:00
3:53 AM,52.0,46.9,83,30.34,10.0,South,5.8,-,N/A,,Overcast,190,2013-10-14 07:53:00
4:53 AM,52.0,46.9,83,30.34,10.0,South,3.5,-,N/A,,Overcast,180,2013-10-14 08:53:00
5:53 AM,48.9,46.0,90,30.34,10.0,South,3.5,-,N/A,,Clear,180,2013-10-14 09:53:00
6:53 AM,48.9,46.9,93,30.35,9.0,Calm,Calm,-,N/A,,Overcast,0,2013-10-14 10:53:00
7:53 AM,51.1,46.9,86,30.35,10.0,South,3.5,-,N/A,,Overcast,170,2013-10-14 11:53:00
8:53 AM,52.0,46.9,83,30.36,10.0,Calm,Calm,-,N/A,,Overcast,0,2013-10-14 12:53:00
9:53 AM,53.1,46.9,80,30.35,10.0,SSW,6.9,-,N/A,,Overcast,210,2013-10-14 13:53:00
10:53 AM,55.0,48.0,77,30.34,10.0,SW,5.8,-,N/A,,Overcast,220,2013-10-14 14:53:00
11:53 AM,57.0,48.9,74,30.33,6.0,South,4.6,-,0.00,,Haze,190,2013-10-14 15:53:00
12:53 PM,59.0,48.9,69,30.30,3.0,Variable,3.5,-,N/A,,Haze,0,2013-10-14 16:53:00
1:53 PM,60.1,51.1,72,30.27,10.0,South,3.5,-,0.00,,Overcast,180,2013-10-14 17:53:00
2:53 PM,63.0,51.1,65,30.26,10.0,Variable,3.5,-,N/A,,Overcast,0,2013-10-14 18:53:00
3:53 PM,63.0,51.1,65,30.25,10.0,SSE,5.8,-,N/A,,Overcast,160,2013-10-14 19:53:00
4:53 PM,63.0,51.1,65,30.25,10.0,SE,3.5,-,N/A,,Overcast,130,2013-10-14 20:53:00
5:53 PM,63.0,52.0,67,30.26,10.0,Calm,Calm,-,N/A,,Overcast,0,2013-10-14 21:53:00
6:53 PM,60.1,54.0,80,30.27,10.0,Calm,Calm,-,N/A,,Overcast,0,2013-10-14 22:53:00
7:53 PM,61.0,53.1,75,30.27,10.0,Calm,Calm,-,N/A,,Overcast,0,2013-10-14 23:53:00
8:36 PM,59.0,53.6,82,30.27,10.0,North,4.6,-,N/A,,Overcast,350,2013-10-15 00:36:00
8:53 PM,59.0,54.0,83,30.28,10.0,NNW,4.6,-,N/A,,Overcast,340,2013-10-15 00:53:00
9:53 PM,60.1,54.0,80,30.29,10.0,NNW,3.5,-,N/A,,Overcast,340,2013-10-15 01:53:00
10:53 PM,57.9,55.0,90,30.28,10.0,Calm,Calm,-,N/A,,Overcast,0,2013-10-15 02:53:00
11:18 PM,59.0,55.4,88,30.27,10.0,Calm,Calm,-,N/A,,Overcast,0,2013-10-15 03:18:00
11:53 PM,57.9,54.0,87,30.27,10.0,North,3.5,-,N/A,,Overcast,10,2013-10-15 03:53:00